TimeCST,TemperatureF,Dew PointF,Humidity,Sea Level PressureIn,VisibilityMPH,Wind Direction,Wind SpeedMPH,Gust SpeedMPH,PrecipitationIn,Events,Conditions,WindDirDegrees,DateUTC
12:15 AM,33.8,32.0,93,30.04,5.0,SE,17.3,-,N/A,,Drizzle,140,2013-03-09 06:15:00
12:35 AM,33.8,32.0,93,30.04,3.0,SE,16.1,19.6,N/A,Rain,Light Rain,140,2013-03-09 06:35:00
12:55 AM,32.0,32.0,100,30.03,4.0,SE,16.1,19.6,N/A,Rain,Light Rain,140,2013-03-09 06:55:00
1:15 AM,33.8,32.0,93,30.03,2.5,SE,13.8,-,0.02,Rain,Rain,140,2013-03-09 07:15:00
1:35 AM,33.8,32.0,93,30.01,2.5,SE,13.8,-,0.05,Rain,Rain,130,2013-03-09 07:35:00
1:55 AM,33.8,32.0,93,30.00,2.0,SE,17.3,24.2,0.10,Rain,Light Rain,130,2013-03-09 07:55:00
2:15 AM,33.8,32.0,93,29.98,3.0,SE,19.6,27.6,0.02,Rain,Rain,130,2013-03-09 08:15:00
2:35 AM,33.8,32.0,93,29.97,2.5,SE,17.3,24.2,0.05,Rain,Rain,130,2013-03-09 08:35:00
2:55 AM,33.8,32.0,93,29.94,3.0,SE,19.6,25.3,0.09,Rain,Rain,140,2013-03-09 08:55:00
3:15 AM,33.8,32.0,93,29.93,2.5,SE,16.1,24.2,0.03,Rain,Rain,130,2013-03-09 09:15:00
3:35 AM,33.8,32.0,93,29.92,2.5,SE,18.4,27.6,0.06,Rain,Rain,130,2013-03-09 09:35:00
3:55 AM,33.8,32.0,93,29.91,2.5,SE,19.6,27.6,0.08,Rain,Rain,130,2013-03-09 09:55:00
4:15 AM,33.8,32.0,93,29.92,3.0,SE,18.4,-,0.01,Rain,Light Rain,140,2013-03-09 10:15:00
4:35 AM,33.8,32.0,93,29.91,4.0,SE,18.4,25.3,0.01,Rain,Light Rain,140,2013-03-09 10:35:00
4:55 AM,33.8,32.0,93,29.91,5.0,SE,18.4,-,0.01,,Overcast,140,2013-03-09 10:55:00
5:15 AM,33.8,32.0,93,29.91,4.0,SE,17.3,-,N/A,Rain,Rain,140,2013-03-09 11:15:00
5:35 AM,33.8,32.0,93,29.91,2.0,SE,16.1,-,0.02,Rain,Rain,140,2013-03-09 11:35:00
5:55 AM,33.8,32.0,93,29.90,2.5,SE,16.1,-,0.03,Rain,Light Rain,140,2013-03-09 11:55:00
6:15 AM,33.8,32.0,93,29.89,3.0,SE,16.1,-,0.01,Rain,Light Rain,140,2013-03-09 12:15:00
6:35 AM,33.8,32.0,93,29.88,5.0,SE,17.3,23.0,0.01,,Light Drizzle,140,2013-03-09 12:35:00
6:55 AM,33.8,32.0,93,29.88,3.0,SE,18.4,21.9,0.01,,Light Drizzle,140,2013-03-09 12:55:00
7:15 AM,33.8,32.0,93,29.87,4.0,SE,17.3,21.9,N/A,,Overcast,140,2013-03-09 13:15:00
7:35 AM,33.8,32.0,93,29.87,3.0,SE,13.8,-,N/A,,Overcast,140,2013-03-09 13:35:00
7:55 AM,33.8,32.0,93,29.87,3.0,SE,13.8,-,N/A,Rain,Light Rain,140,2013-03-09 13:55:00
8:15 AM,33.8,32.0,93,29.85,2.5,SE,16.1,19.6,N/A,Rain,Light Rain,140,2013-03-09 14:15:00
8:35 AM,33.8,32.0,93,29.84,2.0,SE,15.0,21.9,N/A,Rain,Light Rain,140,2013-03-09 14:35:00
8:55 AM,33.8,32.0,93,29.83,1.5,SE,16.1,-,0.01,Rain,Light Rain,140,2013-03-09 14:55:00
9:15 AM,33.8,32.0,93,29.83,2.5,SSE,17.3,-,N/A,Rain,Rain,150,2013-03-09 15:15:00
9:35 AM,33.8,32.0,93,29.82,1.5,SSE,18.4,-,N/A,Rain,Rain,150,2013-03-09 15:35:00
9:55 AM,33.8,33.8,100,29.80,1.5,SE,16.1,-,0.01,Rain,Light Rain,140,2013-03-09 15:55:00
10:15 AM,33.8,33.8,100,29.79,1.2,SE,18.4,23.0,N/A,,Drizzle,140,2013-03-09 16:15:00
10:35 AM,33.8,33.8,100,29.79,1.0,SE,18.4,25.3,N/A,,Overcast,140,2013-03-09 16:35:00
10:55 AM,33.8,32.0,93,29.77,0.5,SE,17.3,-,N/A,Fog,Fog,140,2013-03-09 16:55:00
11:15 AM,33.8,32.0,93,29.77,0.5,SE,19.6,-,N/A,,Drizzle,140,2013-03-09 17:15:00
11:35 AM,33.8,32.0,93,29.76,1.0,SE,19.6,25.3,N/A,Rain,Rain,140,2013-03-09 17:35:00
11:55 AM,33.8,32.0,93,29.76,1.0,SSE,18.4,-,N/A,,Overcast,150,2013-03-09 17:55:00
12:15 PM,33.8,33.8,100,29.74,1.0,SE,15.0,-,N/A,,Overcast,140,2013-03-09 18:15:00
12:35 PM,33.8,33.8,100,29.73,1.5,SE,16.1,21.9,N/A,,Overcast,140,2013-03-09 18:35:00
12:55 PM,33.8,33.8,100,29.72,1.8,SSE,18.4,23.0,N/A,,Overcast,150,2013-03-09 18:55:00
1:15 PM,33.8,33.8,100,29.71,2.0,SSE,15.0,-,N/A,,Light Drizzle,150,2013-03-09 19:15:00
1:35 PM,33.8,33.8,100,29.71,2.0,SSE,17.3,-,N/A,,Light Drizzle,150,2013-03-09 19:35:00
1:55 PM,33.8,33.8,100,29.68,3.0,SSE,15.0,-,N/A,,Overcast,150,2013-03-09 19:55:00
2:15 PM,33.8,33.8,100,29.70,3.0,SSE,16.1,20.7,N/A,,Drizzle,160,2013-03-09 20:15:00
2:35 PM,33.8,33.8,100,29.68,5.0,SSE,19.6,25.3,N/A,,Overcast,150,2013-03-09 20:35:00
2:55 PM,33.8,33.8,100,29.67,7.0,SE,20.7,-,N/A,,Overcast,140,2013-03-09 20:55:00
3:15 PM,33.8,33.8,100,29.67,4.0,SE,15.0,-,N/A,,Overcast,130,2013-03-09 21:15:00
3:35 PM,33.8,33.8,100,29.67,5.0,SSE,15.0,-,N/A,,Light Drizzle,150,2013-03-09 21:35:00
3:55 PM,33.8,33.8,100,29.67,4.0,SSE,15.0,-,N/A,,Light Drizzle,150,2013-03-09 21:55:00
4:15 PM,33.8,33.8,100,29.67,2.0,SSE,15.0,-,N/A,,Overcast,160,2013-03-09 22:15:00
4:35 PM,33.8,33.8,100,29.67,1.5,SSE,11.5,-,N/A,,Overcast,160,2013-03-09 22:35:00
4:55 PM,33.8,33.8,100,29.66,2.5,SE,10.4,-,N/A,,Overcast,140,2013-03-09 22:55:00
5:15 PM,33.8,33.8,100,29.67,1.0,SSE,11.5,-,N/A,Rain,Rain,160,2013-03-09 23:15:00
5:35 PM,33.8,33.8,100,29.67,1.0,SSE,12.7,-,N/A,Rain,Light Rain,160,2013-03-09 23:35:00
5:55 PM,33.8,33.8,100,29.67,1.8,SSE,11.5,-,N/A,,Overcast,160,2013-03-09 23:55:00
6:15 PM,33.8,33.8,100,29.67,0.5,SE,8.1,-,N/A,Fog,Fog,140,2013-03-10 00:15:00
6:35 PM,33.8,33.8,100,29.67,0.5,SE,6.9,-,N/A,Rain,Light Rain,140,2013-03-10 00:35:00
6:55 PM,33.8,33.8,100,29.69,0.5,SSE,6.9,-,N/A,Rain,Rain,160,2013-03-10 00:55:00
7:15 PM,33.8,33.8,100,29.69,0.5,SSE,3.5,-,N/A,,Light Drizzle,150,2013-03-10 01:15:00
7:35 PM,33.8,33.8,100,29.69,0.5,SE,4.6,-,N/A,,Light Drizzle,130,2013-03-10 01:35:00
7:55 PM,33.8,33.8,100,29.69,0.2,Calm,Calm,-,N/A,Fog,Fog,0,2013-03-10 01:55:00
8:15 PM,33.8,33.8,100,29.68,0.2,Calm,Calm,-,N/A,Fog,Fog,0,2013-03-10 02:15:00
8:35 PM,33.8,32.0,93,29.70,0.2,Calm,Calm,-,N/A,Fog,Fog,0,2013-03-10 02:35:00
8:55 PM,33.8,32.0,93,29.71,0.2,Calm,Calm,-,N/A,Fog,Fog,0,2013-03-10 02:55:00
9:15 PM,33.8,32.0,93,29.72,0.2,Calm,Calm,-,N/A,Fog,Fog,0,2013-03-10 03:15:00
9:35 PM,33.8,32.0,93,29.72,0.2,Calm,Calm,-,N/A,,Drizzle,0,2013-03-10 03:35:00
9:55 PM,33.8,32.0,93,29.73,0.2,Calm,Calm,-,N/A,,Drizzle,0,2013-03-10 03:55:00
10:15 PM,33.8,32.0,93,29.73,0.5,North,3.5,-,N/A,,Drizzle,350,2013-03-10 04:15:00
10:35 PM,33.8,33.8,100,29.72,0.8,NNW,4.6,-,N/A,Rain,Light Rain,330,2013-03-10 04:35:00
10:55 PM,33.8,32.0,93,29.73,1.2,North,4.6,-,N/A,,Overcast,360,2013-03-10 04:55:00
11:15 PM,33.8,32.0,93,29.73,1.5,North,6.9,-,N/A,,Overcast,350,2013-03-10 05:15:00
11:35 PM,33.8,32.0,93,29.73,1.5,North,5.8,-,N/A,Rain,Light Rain,350,2013-03-10 05:35:00
11:55 PM,33.8,32.0,93,29.72,3.0,North,9.2,-,N/A,,Overcast,350,2013-03-10 05:55:00